Grand Marais, MN

9:50 PM CST on February 25, 2018 (GMT -0600)
Grand Marais

Weather History for KGNA - January, 2014

Change the Weather History Date:

Monday, January 20, 2014

  Actual Average (KCKC) Record (KCKC)
Temperature  
Mean Temperature -2 °F -  
Max Temperature 3 °F 13 °F 39 °F (2018)
Min Temperature -9 °F 0 °F -20 °F (2008)
Degree Days  
Heating Degree Days 67    
Moisture  
Dew Point -16 °F    
Average Humidity 54    
Maximum Humidity 65    
Minimum Humidity 36    
Precipitation  
Precipitation 0.00 in - - ()
Sea Level Pressure  
Sea Level Pressure 30.21 in    
Wind  
Wind Speed 4 mph (WNW)    
Max Wind Speed 12 mph    
Max Gust Speed 21 mph    
Averages and records for this station are not official NWS values.
T = Trace of Precipitation, MM = Missing Value Source: NWS Daily Summary

Daily Weather History Graph

Daily Weather History Graph

Search for Another Location

Airport or City:

Trip Planner

Search our weather history database for the weather conditions in past years. The results will help you decide how hot, cold, wet, or windy it might be!

Date:

Astronomy

Jan. 20, 2014 Rise Set
Actual Time 7:41 AM CST 4:43 PM CST
Civil Twilight 7:07 AM CST 5:18 PM CST
Nautical Twilight 6:29 AM CST 5:56 PM CST
Astronomical Twilight 5:52 AM CST 6:32 PM CST
Moon 9:42 PM CST (1/20) 9:19 AM CST (1/20)
Length of Visible Light 10h 11m
Length of Day
9h 02m
Waning Gibbous, 82% of the Moon is Illuminated
Jan 20
Waning Gibbous
Jan 23
Last Quarter
Jan 30
New
Feb 6
First Quarter
Feb 14
Full

Hourly Weather History & Observations

Time (CST) Temp. Windchill Dew Point Humidity Pressure Visibility Wind Dir Wind Speed Gust Speed Precip Events Conditions
12:56 AM 3.0 °F - -8.0 °F 60% 29.86 in - Calm Calm - N/A   Unknown
1:56 AM 1.9 °F -9.2 °F -9.0 °F 60% 29.88 in - Variable 5.8 mph - N/A   Unknown
2:56 AM 1.0 °F -10.3 °F -11.0 °F 57% 29.93 in - Variable 5.8 mph - N/A   Unknown
3:56 AM 1.0 °F -8.7 °F -11.0 °F 57% 29.96 in - NE 4.6 mph - N/A   Unknown
4:56 AM -0.9 °F - -11.9 °F 60% 29.99 in - Calm Calm - N/A   Unknown
5:56 AM -2.0 °F -15.4 °F -15.0 °F 54% 30.04 in - NE 6.9 mph - N/A   Unknown
6:56 AM -4.0 °F - -17.0 °F 54% 30.08 in - Calm Calm - N/A   Unknown
7:56 AM -7.1 °F -25.9 °F -18.9 °F 56% 30.09 in - North 11.5 mph 20.7 mph N/A   Unknown
8:56 AM -6.0 °F -16.9 °F -18.9 °F 54% 30.15 in - Variable 4.6 mph - N/A   Unknown
9:56 AM -4.0 °F - -18.9 °F 49% 30.18 in - Calm Calm - N/A   Unknown
10:56 AM -0.9 °F -12.7 °F -22.0 °F 36% 30.22 in - Variable 5.8 mph - N/A   Unknown
11:56 AM -0.0 °F -11.6 °F -20.9 °F 37% 30.23 in - Variable 5.8 mph - N/A   Unknown
12:56 PM -0.0 °F -13.0 °F -20.0 °F 39% 30.24 in - Variable 6.9 mph - N/A   Unknown
1:56 PM -0.0 °F -11.6 °F -18.0 °F 43% 30.26 in - Variable 5.8 mph - N/A   Unknown
2:56 PM -0.9 °F -12.7 °F -17.0 °F 47% 30.30 in - Variable 5.8 mph - N/A   Unknown
3:56 PM -2.0 °F -15.4 °F -17.0 °F 49% 30.33 in - WNW 6.9 mph - N/A   Unknown
4:56 PM -4.0 °F - -17.0 °F 54% 30.36 in - Calm Calm - N/A   Unknown
5:56 PM -4.0 °F -12.4 °F -16.1 °F 56% 30.39 in - Variable 3.5 mph - N/A   Unknown
6:56 PM -5.1 °F -13.6 °F -16.1 °F 59% 30.41 in - Variable 3.5 mph - N/A   Unknown
7:56 PM -6.0 °F -16.9 °F -17.0 °F 59% 30.43 in - Variable 4.6 mph - N/A   Unknown
8:56 PM -6.0 °F - -17.0 °F 59% 30.45 in - Calm Calm - N/A   Unknown
9:56 PM -7.1 °F -15.9 °F -16.1 °F 65% 30.45 in - WSW 3.5 mph - N/A   Unknown
10:56 PM -7.1 °F -15.9 °F -17.0 °F 62% 30.44 in - West 3.5 mph - N/A   Unknown
11:56 PM -9.0 °F -20.4 °F -18.0 °F 65% 30.45 in - SSW 4.6 mph - N/A   Unknown